"Pseudo-MPEC" for C06RPC2

Created 2019 Feb 12 2:18:11 UT using Find_Orb

Click here for an explanation of pseudo-MPECs

 
 Astrometry: 
     C06RPC2  C2019 02 11.25485 08 39 35.01 +09 05 56.1    ~2B7I 20.5 GVNEOCPG96
     C06RPC2  C2019 02 11.26048 08 39 34.52 +09 05 55.0    ~2B7I 20.2 GVNEOCPG96
     C06RPC2  C2019 02 11.26611 08 39 34.01 +09 05 53.5    ~2B7I 20.1 GVNEOCPG96
     C06RPC2  C2019 02 11.27173 08 39 33.51 +09 05 52.3    ~2B7I       VNEOCPG96
     C06RPC2  C2019 02 11.37613 08 39 24.58 +09 05 26.8    ~2B9m 20.3 GVNEOCPI52
     C06RPC2  C2019 02 11.37772 08 39 24.47 +09 05 26.3    ~2B9m 20.4 GVNEOCPI52
     C06RPC2  C2019 02 11.37949 08 39 24.30 +09 05 26.2    ~2B9m 20.5 GVNEOCPI52
     C06RPC2  C2019 02 11.38154 08 39 24.12 +09 05 25.2    ~2B9m 20.4 GVNEOCPI52

Station data:
(G96) Mt. Lemmon Survey  (N32.442754 W110.788720)  US/Arizona.  Observers B.
   M. Africano, E. J. Christensen, G. A. Farneth, D. C. Fuls, A. R. Gibbs, A.
   D. Grauer, H. Groeller, J. A. Johnson, R. A. Kowalski, S. M. Larson, G. J.
   Leonard, R. L. Seaman, F. C. Shelly. 1.5-m reflector + 10K CCD.
(I52) Steward Observatory, Mt. Lemmon Station  (N32.442547 W110.788920)
   US/Arizona.  Observers B. M. Africano, E. J. Christensen, G. A. Farneth,
   D. C. Fuls, A. R. Gibbs, A. D. Grauer, H. Groeller, J. A. Johnson, R. A.
   Kowalski, S. M. Larson, G. J. Leonard, R. L. Seaman, F. C. Shelly. 1.0-m
   reflector + CCD.

Orbital elements:  C06RPC2
   Perihelion 2019 May 12.031949 +/- 287 TT =  0:46:00 (JD 2458615.531949)
Epoch 2019 Feb 11.0 TT = JDT 2458525.5   Earth MOID: 0.2592   Ma: 0.0099
M 331.92903114 +/- 60               (J2000 ecliptic)          AutoNEOCP
n   0.31178897 +/- 0.211            Peri.  283.04552 +/- 100
a   2.15391659 +/- 0.974            Node   281.14915 +/- 30
e   0.4230468 +/- 0.263             Incl.    5.32510 +/- 32
P   3.16                   H 20.5   G  0.15   U 11.7  SR
q 1.24270896 +/- 0.912    Q 3.06512422 +/- 35.5
From 8 observations 2019 Feb. 11 (3.0 hr); mean residual 0".19
Residuals in arcseconds: 
190211 G96  .29+  .14-    190211 G96  .40-  .09+    190211 I52  .01-  .26+    
190211 G96  .21+  .10+    190211 I52  .09-  .03+    190211 I52  .10-  .23-    
190211 G96  .16-  .05-    190211 I52  .28+  .08-    

Ephemerides (geocentric):
Date (UTC) HH   RA              Dec         delta   r     elong  mag " sig PA
---- -- -- --  -------------   -----------  ------ ------ -----  --- ---- ---
2019 02 12 02  08 38 28.556   +09 02 45.23  .53395 1.5076 164.0 20.7  127 171
2019 02 12 03  08 38 25.232   +09 02 35.37  .53381 1.5074 164.0 20.7  133 172
2019 02 12 04  08 38 21.908   +09 02 25.51  .53368 1.5071 163.9 20.7  140 172
2019 02 12 05  08 38 18.585   +09 02 15.65  .53354 1.5069 163.9 20.7  147 172
2019 02 12 06  08 38 15.263   +09 02 05.80  .53340 1.5067 163.8 20.7  154 172
2019 02 12 07  08 38 11.942   +09 01 55.96  .53327 1.5065 163.8 20.7  161 172
2019 02 12 08  08 38 08.623   +09 01 46.13  .53313 1.5063 163.7 20.7  168 173
2019 02 12 09  08 38 05.304   +09 01 36.30  .53300 1.5061 163.7 20.7  175 173
2019 02 12 10  08 38 01.986   +09 01 26.47  .53287 1.5059 163.6 20.7  182 173
2019 02 12 11  08 37 58.670   +09 01 16.65  .53273 1.5057 163.6 20.7  190 173
2019 02 12 12  08 37 55.355   +09 01 06.84  .53260 1.5055 163.5 20.7  197 173
2019 02 12 13  08 37 52.040   +09 00 57.04  .53246 1.5053 163.5 20.7  204 173
2019 02 12 14  08 37 48.727   +09 00 47.24  .53233 1.5051 163.5 20.7  211 173
2019 02 12 15  08 37 45.415   +09 00 37.44  .53220 1.5049 163.4 20.7  219 173
2019 02 12 16  08 37 42.104   +09 00 27.65  .53207 1.5047 163.4 20.7  226 173
2019 02 12 17  08 37 38.795   +09 00 17.87  .53193 1.5044 163.3 20.7  233 173
2019 02 12 18  08 37 35.486   +09 00 08.10  .53180 1.5042 163.3 20.7  241 173
2019 02 12 19  08 37 32.179   +08 59 58.33  .53167 1.5040 163.2 20.7  248 173
2019 02 12 20  08 37 28.873   +08 59 48.56  .53154 1.5038 163.2 20.7  256 173
2019 02 12 21  08 37 25.568   +08 59 38.81  .53141 1.5036 163.1 20.7  263 174
2019 02 12 22  08 37 22.265   +08 59 29.05  .53128 1.5034 163.1 20.7  271 174
2019 02 12 23  08 37 18.962   +08 59 19.31  .53115 1.5032 163.0 20.7  278 174
2019 02 13 00  08 37 15.661   +08 59 09.57  .53102 1.5030 163.0 20.7  286 174
2019 02 13 01  08 37 12.362   +08 58 59.83  .53089 1.5028 162.9 20.7  294 174
2019 02 13 02  08 37 09.063   +08 58 50.11  .53076 1.5026 162.9 20.7  301 174
2019 02 13 03  08 37 05.766   +08 58 40.38  .53063 1.5024 162.8 20.7  309 174
2019 02 13 04  08 37 02.470   +08 58 30.67  .53050 1.5022 162.8 20.7  317 174
2019 02 13 05  08 36 59.176   +08 58 20.96  .53037 1.5020 162.7 20.7  324 174
2019 02 13 06  08 36 55.882   +08 58 11.25  .53025 1.5018 162.7 20.7  332 174
2019 02 13 07  08 36 52.590   +08 58 01.56  .53012 1.5015 162.6 20.7  340 174
2019 02 13 08  08 36 49.300   +08 57 51.86  .52999 1.5013 162.6 20.7  348 174
2019 02 13 09  08 36 46.011   +08 57 42.18  .52986 1.5011 162.5 20.7  356 174
2019 02 13 10  08 36 42.723   +08 57 32.50  .52974 1.5009 162.5 20.7  364 174
2019 02 13 11  08 36 39.437   +08 57 22.82  .52961 1.5007 162.4 20.7  372 174
2019 02 13 12  08 36 36.152   +08 57 13.15  .52948 1.5005 162.4 20.7  380 174
2019 02 13 13  08 36 32.869   +08 57 03.49  .52936 1.5003 162.3 20.7  388 174
2019 02 13 14  08 36 29.587   +08 56 53.83  .52923 1.5001 162.3 20.7  396 174
2019 02 13 15  08 36 26.306   +08 56 44.18  .52911 1.4999 162.2 20.7  404 174
2019 02 13 16  08 36 23.027   +08 56 34.54  .52898 1.4997 162.2 20.7  412 174
2019 02 13 17  08 36 19.750   +08 56 24.90  .52886 1.4995 162.1 20.7  420 174
2019 02 13 18  08 36 16.474   +08 56 15.26  .52873 1.4993 162.1 20.7  428 174
2019 02 13 19  08 36 13.199   +08 56 05.63  .52861 1.4991 162.0 20.7  437 174
2019 02 13 20  08 36 09.926   +08 55 56.01  .52849 1.4989 162.0 20.7  445 174
2019 02 13 21  08 36 06.654   +08 55 46.40  .52836 1.4987 161.9 20.7  453 174
2019 02 13 22  08 36 03.384   +08 55 36.78  .52824 1.4984 161.9 20.7  462 174
2019 02 13 23  08 36 00.116   +08 55 27.18  .52812 1.4982 161.8 20.7  470 174
2019 02 14 00  08 35 56.849   +08 55 17.58  .52799 1.4980 161.8 20.7  478 174
2019 02 14 01  08 35 53.584   +08 55 07.99  .52787 1.4978 161.7 20.7  487 174